Overview Statistics Trail Chart Weather Telemetry Raw packets
 

This is the latest recevied weather packets stored in our database for station/object KB4MOX. If no packets are shown the sender has not sent any weather packets the latest 10 day(s).

<< 46 47 48 49 50 51 52 >>
Time Temp. Humidity Pressure Rain* Wind** Luminosity Snow
1788305520 33.33° C 53% 1017.4 hPa 0 mm - 18 W/m² -
1788305215 33.89° C 50% 1017.4 hPa 0 mm - 22 W/m² -
1788304910 34.44° C 49% 1017.2 hPa 0 mm - 27 W/m² -
1788304607 34.44° C 49% 1017.4 hPa 0 mm - 38 W/m² -
1788304303 34.44° C 49% 1017.3 hPa 0 mm - 41 W/m² -
1788303998 35° C 47% 1017.1 hPa 0 mm - 47 W/m² -
1788303698 35° C 47% 1017.2 hPa 0 mm - 63 W/m² -
1788303393 35° C 46% 1017.5 hPa 0 mm - 71 W/m² -
1788303087 35° C 45% 1017.3 hPa 0 mm - 81 W/m² -
1788302784 35° C 46% 1017.4 hPa 0 mm - 92 W/m² -
1788302479 35° C 46% 1017.3 hPa 0 mm - 105 W/m² -
1788302174 35° C 46% 1017.4 hPa 0 mm - 116 W/m² -
1788301870 35° C 45% 1017.4 hPa 0 mm - 127 W/m² -
1788301566 35° C 45% 1017.3 hPa 0 mm - 145 W/m² -
1788301261 35° C 45% 1017.2 hPa 0 mm - 159 W/m² -
1788300958 35° C 45% 1017.2 hPa 0 mm - 174 W/m² -
1788300653 35° C 45% 1017.3 hPa 0 mm - 190 W/m² -
1788300352 35° C 45% 1017.3 hPa 0 mm - 74 W/m² -
1788300051 34.44° C 47% 1017.3 hPa 0 mm - 223 W/m² -
1788299749 35° C 46% 1017.1 hPa 0 mm - 127 W/m² -
1788299444 35.56° C 44% 1017.1 hPa 0 mm - 65 W/m² -
1788299143 35° C 45% 1017.1 hPa 0 mm - 263 W/m² -
1788298837 35.56° C 44% 1017.2 hPa 0 mm - 293 W/m² -
1788298532 35.56° C 44% 1017.3 hPa 0 mm - 318 W/m² -
1788298231 35° C 45% 1017.3 hPa 0 mm - 325 W/m² -

* Rain latest hour (hover to see other rain measurements)
** Current wind speed in m/s (hover to see current wind gust speed)